Savoonga, AK

2:15 AM AKST on February 22, 2017 (GMT -0900)
Savoonga

Weather History for PASA - July, 2013

Change the Weather History Date:

Monday, July 29, 2013

  Actual Average Record
Temperature  
Mean Temperature 54 °F -  
Max Temperature 57 °F 50 °F 89 °F (2014)
Min Temperature 51 °F 41 °F 35 °F (2000)
Degree Days  
Heating Degree Days 11    
Growing Degree Days 4 (Base 50)    
Moisture  
Dew Point 47 °F    
Average Humidity 77    
Maximum Humidity 88    
Minimum Humidity 63    
Precipitation  
Precipitation 0.00 in - - ()
Sea Level Pressure  
Sea Level Pressure 30.22 in    
Wind  
Wind Speed 18 mph (SSW)    
Max Wind Speed 23 mph    
Max Gust Speed 31 mph    
Visibility 10 miles    
Events      
Averages and records for this station are not official NWS values.
T = Trace of Precipitation, MM = Missing Value Source: NWS Daily Summary

Daily Weather History Graph

Daily Weather History Graph

Search for Another Location

Airport or City:

Trip Planner

Search our weather history database for the weather conditions in past years. The results will help you decide how hot, cold, wet, or windy it might be!

Date:

Astronomy

Jul. 29, 2013 Rise Set
Actual Time 6:25 AM AKDT 12:28 AM AKDT
Civil Twilight 4:54 AM AKDT 1:57 AM AKDT
Nautical Twilight Sun does not rise Sun does not rise
Astronomical Twilight Sun does not rise Sun does not rise
Moon 1:00 AM AKDT (7/29) 5:36 PM AKDT (7/29)
Length of Visible Light 21h 02m
Length of Day
18h 03m
Waning Gibbous, 49% of the Moon is Illuminated
Jul 29
Waning Gibbous
Aug 6
New
Aug 14
First Quarter
Aug 20
Full
Aug 28
Last Quarter

Hourly Weather History & Observations

Time (AKDT) Temp. Dew Point Humidity Pressure Visibility Wind Dir Wind Speed Gust Speed Precip Events Conditions
12:16 AM 51.8 °F 46.4 °F 82% 30.18 in 10.0 mi SW 23.0 mph 31.1 mph N/A   Scattered Clouds
12:36 AM 51.8 °F 48.2 °F 88% 30.19 in 10.0 mi SW 20.7 mph 26.5 mph N/A   Overcast
12:56 AM 51.8 °F 46.4 °F 82% 30.19 in 10.0 mi SW 21.9 mph - N/A   Overcast
1:16 AM 51.8 °F 48.2 °F 88% 30.20 in 10.0 mi SW 19.6 mph - N/A   Mostly Cloudy
1:36 AM 53.6 °F 48.2 °F 82% 30.20 in 10.0 mi SW 18.4 mph - N/A   Mostly Cloudy
1:56 AM 53.6 °F 48.2 °F 82% 30.20 in 10.0 mi SW 20.7 mph - N/A   Overcast
2:16 AM 51.8 °F 48.2 °F 88% 30.20 in 10.0 mi SW 19.6 mph - N/A   Overcast
2:36 AM 53.6 °F 48.2 °F 82% 30.19 in 10.0 mi SW 20.7 mph 24.2 mph N/A   Overcast
2:56 AM 53.6 °F 48.2 °F 82% 30.20 in 10.0 mi SW 17.3 mph - N/A   Overcast
3:16 AM 51.8 °F 48.2 °F 88% 30.20 in 10.0 mi SW 18.4 mph - N/A   Overcast
3:36 AM 51.8 °F 46.4 °F 82% 30.21 in 10.0 mi SSW 16.1 mph - N/A   Overcast
3:56 AM 51.8 °F 46.4 °F 82% 30.21 in 10.0 mi SSW 17.3 mph - N/A   Overcast
4:16 AM 51.8 °F 46.4 °F 82% 30.21 in 10.0 mi SSW 18.4 mph 23.0 mph N/A   Overcast
4:36 AM 51.8 °F 46.4 °F 82% 30.21 in 10.0 mi SSW 16.1 mph - N/A   Overcast
4:56 AM 51.8 °F 46.4 °F 82% 30.22 in 10.0 mi SSW 16.1 mph - N/A   Mostly Cloudy
5:16 AM 51.8 °F 46.4 °F 82% 30.22 in 10.0 mi SSW 19.6 mph 24.2 mph N/A   Overcast
5:36 AM 51.8 °F 46.4 °F 82% 30.21 in 10.0 mi SSW 21.9 mph 26.5 mph N/A   Overcast
5:56 AM 51.8 °F 46.4 °F 82% 30.21 in 10.0 mi SSW 17.3 mph 23.0 mph N/A   Overcast
6:16 AM 53.6 °F 46.4 °F 77% 30.21 in 10.0 mi SSW 19.6 mph - N/A   Overcast
6:36 AM 53.6 °F 46.4 °F 77% 30.21 in 10.0 mi SSW 17.3 mph 23.0 mph N/A   Overcast
6:56 AM 53.6 °F 46.4 °F 77% 30.21 in 10.0 mi SSW 17.3 mph - N/A   Overcast
7:16 AM 53.6 °F 46.4 °F 77% 30.21 in 10.0 mi SSW 16.1 mph - N/A   Overcast
7:36 AM 53.6 °F 46.4 °F 77% 30.21 in 10.0 mi SW 15.0 mph - N/A   Overcast
7:56 AM 53.6 °F 46.4 °F 77% 30.22 in 10.0 mi SW 15.0 mph - N/A   Overcast
8:16 AM 53.6 °F 46.4 °F 77% 30.22 in 10.0 mi SSW 15.0 mph - N/A   Overcast
8:36 AM 55.4 °F 46.4 °F 72% 30.22 in 10.0 mi SW 13.8 mph 17.3 mph N/A   Overcast
8:56 AM 55.4 °F 46.4 °F 72% 30.22 in 10.0 mi SW 12.7 mph - N/A   Overcast
9:16 AM 55.4 °F 44.6 °F 67% 30.23 in 10.0 mi SW 13.8 mph - N/A   Overcast
9:36 AM 55.4 °F 46.4 °F 72% 30.22 in 10.0 mi SW 13.8 mph - N/A   Overcast
9:56 AM 55.4 °F 46.4 °F 72% 30.22 in 10.0 mi SW 13.8 mph 18.4 mph N/A   Overcast
10:16 AM 55.4 °F 46.4 °F 72% 30.22 in 10.0 mi SW 17.3 mph - N/A   Overcast
10:36 AM 55.4 °F 46.4 °F 72% 30.22 in 10.0 mi SW 16.1 mph 20.7 mph N/A   Overcast
10:56 AM 57.2 °F 46.4 °F 67% 30.23 in 10.0 mi SW 16.1 mph 20.7 mph N/A   Overcast
11:16 AM 57.2 °F 48.2 °F 72% 30.23 in 10.0 mi SSW 19.6 mph - N/A   Overcast
11:36 AM 57.2 °F 46.4 °F 67% 30.23 in 10.0 mi SSW 18.4 mph - N/A   Overcast
11:56 AM 57.2 °F 46.4 °F 67% 30.24 in 10.0 mi SSW 15.0 mph - N/A   Overcast
12:16 PM 55.4 °F 48.2 °F 77% 30.24 in 10.0 mi SSW 15.0 mph - N/A   Overcast
12:36 PM 55.4 °F 48.2 °F 77% 30.24 in 10.0 mi SSW 16.1 mph - N/A   Overcast
12:56 PM 55.4 °F 48.2 °F 77% 30.25 in 10.0 mi SSW 11.5 mph - N/A   Overcast
1:16 PM 55.4 °F 50.0 °F 82% 30.25 in 10.0 mi SSW 15.0 mph - N/A   Overcast
1:36 PM 55.4 °F 48.2 °F 77% 30.25 in 10.0 mi SSW 16.1 mph - N/A   Overcast
1:56 PM 55.4 °F 48.2 °F 77% 30.25 in 10.0 mi SSW 13.8 mph - N/A   Overcast
2:16 PM 55.4 °F 48.2 °F 77% 30.25 in 10.0 mi SSW 15.0 mph - N/A   Overcast
2:36 PM 55.4 °F 48.2 °F 77% 30.25 in 10.0 mi SSW 17.3 mph - N/A   Overcast
2:56 PM 57.2 °F 48.2 °F 72% 30.25 in 10.0 mi SSW 16.1 mph 20.7 mph N/A   Overcast
3:16 PM 57.2 °F 44.6 °F 63% 30.24 in 10.0 mi SW 12.7 mph 21.9 mph N/A   Overcast
3:36 PM 57.2 °F 48.2 °F 72% 30.24 in 10.0 mi SW 15.0 mph 24.2 mph N/A   Overcast
3:56 PM 57.2 °F 48.2 °F 72% 30.24 in 10.0 mi SW 10.4 mph 24.2 mph N/A   Overcast
4:16 PM 57.2 °F 48.2 °F 72% 30.24 in 10.0 mi SW 16.1 mph 20.7 mph N/A   Overcast
4:36 PM 55.4 °F 48.2 °F 77% 30.24 in 10.0 mi SW 16.1 mph - N/A   Overcast
4:56 PM 55.4 °F 48.2 °F 77% 30.24 in 10.0 mi SSW 19.6 mph - N/A   Overcast
5:16 PM 53.6 °F 48.2 °F 82% 30.23 in 10.0 mi SSW 18.4 mph 21.9 mph N/A   Mostly Cloudy
5:36 PM 53.6 °F 48.2 °F 82% 30.23 in 10.0 mi South 17.3 mph 24.2 mph N/A   Overcast
5:56 PM 55.4 °F 48.2 °F 77% 30.23 in 10.0 mi SSW 21.9 mph - N/A   Overcast
6:16 PM 55.4 °F 48.2 °F 77% 30.23 in 10.0 mi SSW 19.6 mph 25.3 mph N/A   Mostly Cloudy
6:36 PM 53.6 °F 48.2 °F 82% 30.22 in 10.0 mi SSW 18.4 mph - N/A   Overcast
6:56 PM 55.4 °F 48.2 °F 77% 30.22 in 10.0 mi SSW 19.6 mph 24.2 mph N/A   Overcast
7:16 PM 55.4 °F 48.2 °F 77% 30.21 in 10.0 mi SSW 16.1 mph 23.0 mph N/A   Overcast
7:36 PM 53.6 °F 48.2 °F 82% 30.21 in 10.0 mi SSW 19.6 mph - N/A   Overcast
7:56 PM 55.4 °F 48.2 °F 77% 30.21 in 10.0 mi SSW 18.4 mph 21.9 mph N/A   Overcast
8:16 PM 55.4 °F 48.2 °F 77% 30.21 in 10.0 mi SSW 18.4 mph - N/A   Overcast
8:36 PM 53.6 °F 48.2 °F 82% 30.21 in 10.0 mi SSW 20.7 mph - N/A   Overcast
8:56 PM 55.4 °F 48.2 °F 77% 30.20 in 10.0 mi SW 18.4 mph 27.6 mph N/A   Overcast
9:16 PM 55.4 °F 48.2 °F 77% 30.20 in 10.0 mi SW 17.3 mph 25.3 mph N/A   Overcast
9:36 PM 55.4 °F 46.4 °F 72% 30.21 in 10.0 mi SSW 16.1 mph - N/A   Overcast
9:56 PM 55.4 °F 46.4 °F 72% 30.21 in 10.0 mi SSW 18.4 mph - N/A   Overcast
10:16 PM 53.6 °F 46.4 °F 77% 30.22 in 10.0 mi SSW 13.8 mph - N/A   Mostly Cloudy
10:36 PM 53.6 °F 46.4 °F 77% 30.22 in 10.0 mi SSW 16.1 mph - N/A   Mostly Cloudy
10:56 PM 53.6 °F 46.4 °F 77% 30.21 in 10.0 mi SSW 16.1 mph - N/A   Overcast
11:16 PM 55.4 °F 44.6 °F 67% 30.22 in 10.0 mi SW 17.3 mph 21.9 mph N/A   Overcast
11:36 PM 55.4 °F 44.6 °F 67% 30.22 in 10.0 mi SW 17.3 mph - N/A   Overcast
11:56 PM 53.6 °F 44.6 °F 72% 30.22 in 10.0 mi SSW 18.4 mph 21.9 mph N/A   Overcast